This demonstration page uses our WeatherBlox Daily Observations layout. Learn more.

Left ArrowRight Arrow

31.84235, -102.49876

Hourly Observations for July 26, 2022

Temp ( °F °C ) Dew Point ( °F °C ) Humidity (%) Winds ( mph kmh ) Pressure ( in mb ) Visibility ( mi km ) Precip ( " mm )
12:53 am 00:53 Clear 85 29.4 52 11.1 32 32 S 13 20 29.87 1012 10 16 0.00 0.00
1:53 am 01:53 Clear 84 28.9 54 12.2 36 36 S 10 17 29.87 1012 10 16 0.00 0.00
2:53 am 02:53 Clear 82 27.8 55 12.8 40 40 SSE 9 15 29.86 1011 10 16 0.00 0.00
3:53 am 03:53 Clear 81 27.2 56 13.3 42 42 SSE 10 17 29.86 1011 10 16 0.00 0.00
4:53 am 04:53 Clear 78 25.6 56 13.3 47 47 SSE 10 17 29.86 1011 10 16 0.00 0.00
5:53 am 05:53 Clear 77 25 56 13.3 48 48 SE 9 15 29.87 1011 10 16 0.00 0.00
6:53 am 06:53 Clear 76 24.4 58 14.4 54 54 SSE 10 17 29.88 1012 10 16 0.00 0.00
7:53 am 07:53 Sunny 78 25.6 64 17.8 62 62 S 12 19 29.89 1012 10 16 0.00 0.00
8:53 am 08:53 Sunny 80 26.7 64 17.8 58 58 S 21 33 29.90 1013 10 16 0.00 0.00
9:53 am 09:53 Sunny 84 28.9 64 17.8 51 51 S 15 24 29.91 1013 10 16 0.00 0.00
10:53 am 10:53 Sunny 87 30.6 63 17.2 45 45 S 20 31 29.90 1013 10 16 0.00 0.00
11:53 am 11:53 Sunny 91 32.8 62 16.7 38 38 S 16 26 29.90 1013 10 16 0.00 0.00
12:53 pm 12:53 Sunny 92 33.3 61 16.1 36 36 S 14 22 29.89 1012 10 16 0.00 0.00
1:53 pm 13:53 Sunny 95 35 60 15.6 31 31 S 12 19 29.86 1011 10 16 0.00 0.00
2:53 pm 14:53 Sunny 98 36.7 59 15 27 27 SE 12 19 29.84 1010 10 16 0.00 0.00
3:53 pm 15:53 Sunny 97 36.1 56 13.3 25 25 SSE 14 22 29.81 1010 10 16 0.00 0.00
4:53 pm 16:53 Sunny 96 35.6 56 13.3 26 26 S 10 17 29.79 1009 10 16 0.00 0.00
5:53 pm 17:53 Sunny 99 37.2 53 11.7 21 21 SSE 13 20 29.77 1008 10 16 0.00 0.00
6:53 pm 18:53 Sunny 99 37.2 51 10.6 20 20 SSE 13 20 29.76 1008 10 16 0.00 0.00
7:53 pm 19:53 Sunny 97 36.1 54 12.2 24 24 SSE 17 28 29.76 1008 10 16 0.00 0.00
8:53 pm 20:53 Clear 95 35 54 12.2 25 25 SSE 14 22 29.78 1009 10 16 0.00 0.00
9:53 pm 21:53 Clear 93 33.9 55 12.8 28 28 S 15 24 29.80 1009 10 16 0.00 0.00
10:53 pm 22:53 Clear 91 32.8 55 12.8 30 30 S 16 26 29.83 1010 10 16 0.00 0.00
11:53 pm 23:53 Clear 89 31.7 56 13.3 33 33 S 14 22 29.86 1011 10 16 0.00 0.00

Powered by AerisWeather